Dewpoint
9 9 7 6 5 7 8 7 8 14 16 18 20 21 23 24 25 25 26 25 25 27 28 29 30 30 27
5 5 5 6 6 6 5 6 8 11 17 18 19 20 21 21 22 24 24 23 24 23 23 25 26 26 25
3 5 5 5 4 5 8 9 11 13 15 15 17 18 20 21 22 22 23 26 22 20 20 21 22 23 23
4 4 4 3 6 6 7 10 10 11 13 16 18 19 20 20 21 21 21 19 18 17 18 19 21 21 22
3 3 4 5 7 9 11 11 12 14 13 13 14 15 16 18 18 16 14 16 18 19 20 21 21 21 22
11 11 11 10 11 12 13 13 12 13 15 13 16 13 12 12 13 15 16 17 17 18 19 19 20 20 21
16 16 15 15 15 15 15 15 13 13 14 10 7 5 6 7 11 14 16 17 18 18 19 19 19 19 19
11 14 17 18 17 15 13 11 9 7 5 4 4 6 9 11 13 15 16 16 16 16 16 17 17 17 17
14 15 14 14 13 12 12 12 11 10 10 11 12 12 12 11 11 14 15 15 15 15 15 15 14 15 16
12 13 14 14 15 17 22 16 15 13 12 13 10 8 6 6 7 8 9 11 12 12 13 14 15 17 15
14 16 15 13 12 10 7 9 10 11 8 5 7 8 10 11 9 9 11 11 12 13 14 14 13 13 11
17 15 15 14 13 11 10 10 10 9 8 9 13 12 12 13 12 9 10 10 13 14 13 13 12 10 8
19 19 16 14 13 13 13 13 14 14 14 13 17 16 15 14 12 12 14 16 11 7 7 6 6 6 5
19 18 18 20 16 18 17 17 16 17 17 15 14 13 13 14 15 15 10 9 7 6 6 6 5 4 3
17 16 15 17 17 20 19 18 16 13 12 12 10 10 14 14 14 12 11 9 8 7 5 6 6 6 6
13 14 16 15 15 16 15 15 13 11 8 9 11 12 13 12 12 11 9 8 8 7 6 6 6 7 7
8 12 14 13 13 14 12 10 9 8 10 11 12 11 8 5 4 4 4 5 5 5 5 6 6 5 5
Wind_Speed
4 4 5 8 8 7 8 9 7 9 11 12 13 14 14 14 15 15 16 13 15 18 19 19 18 18 20
5 6 8 7 9 9 8 7 8 10 12 13 13 14 14 14 15 16 13 13 14 17 21 23 23 23 22
9 6 7 8 7 8 8 8 8 9 10 11 13 14 14 15 16 16 16 13 15 19 21 21 21 23 23
11 12 11 9 8 11 11 8 8 7 10 12 14 15 15 15 16 16 16 17 21 23 22 21 21 21 22
12 12 12 11 11 9 12 12 12 10 11 10 9 8 8 10 13 17 20 20 20 20 20 21 23 24 25
14 15 15 13 12 12 13 14 13 3 7 8 8 12 14 16 17 20 20 21 22 23 23 24 25 26 26
19 17 17 14 13 15 15 14 15 13 14 22 18 19 15 15 19 22 23 22 22 23 24 24 25 27 28
17 15 15 11 12 11 13 19 20 19 18 22 15 19 17 16 18 20 22 25 28 29 30 30 29 29 29
26 25 24 25 23 16 17 17 19 18 13 17 17 19 17 19 19 22 24 25 26 27 28 27 27 27 25
19 24 26 23 26 21 13 18 17 13 12 17 19 18 21 18 19 18 16 20 24 27 27 27 27 19 19
22 20 19 20 19 19 21 19 20 21 18 17 17 18 18 20 19 19 19 19 19 20 25 27 27 25 22
22 22 21 21 19 19 20 20 19 22 19 17 15 18 18 19 22 19 19 19 18 18 18 20 28 32 35
20 17 21 18 18 18 19 21 21 21 20 21 18 19 19 22 24 22 16 12 17 19 20 21 21 21 24
15 17 15 15 17 17 18 18 20 19 19 21 20 21 23 23 21 21 20 19 19 19 20 22 24 24 26
13 18 18 15 16 14 16 13 13 16 17 16 18 21 20 22 20 18 20 21 21 21 23 26 26 24 25
14 11 8 10 10 10 12 14 16 16 18 17 15 15 15 20 20 19 21 23 23 24 24 26 29 27 26
14 15 14 15 16 14 14 16 18 18 17 14 15 15 17 24 19 20 25 25 24 26 24 26 29 33 26
Wind_Direction
230 236 266 276 294 300 298 295 292 293 302 304 303 300 298 297 295 296 294 301 305 307 307 304 299 301 303
262 259 257 270 280 282 280 272 274 284 292 293 294 294 296 297 295 285 286 289 298 303 301 299 297 298 297
257 262 272 268 276 274 268 267 264 269 283 290 291 293 294 290 287 284 286 297 297 294 293 291 289 288 287
252 263 270 284 278 282 282 272 284 282 283 280 280 283 284 285 287 288 291 290 291 291 289 286 285 284 283
254 258 263 270 269 283 286 295 294 286 284 276 273 273 270 276 279 282 286 283 282 283 282 281 281 283 284
247 249 253 250 263 269 279 288 302 287 284 286 286 282 279 279 276 278 279 279 281 282 280 279 280 280 281
234 238 252 250 252 258 261 262 269 270 278 281 282 279 277 274 273 276 279 278 278 279 279 279 282 283 283
257 251 248 238 216 233 251 264 265 264 264 272 274 273 277 273 269 270 274 277 278 279 279 278 278 279 280
253 253 248 246 244 239 242 248 259 260 250 260 265 267 267 274 274 270 270 272 274 275 276 277 282 283 285
247 253 257 260 261 261 248 238 249 260 240 248 265 270 279 272 267 271 271 271 274 276 275 276 277 279 283
242 241 241 241 242 243 245 247 250 255 259 260 262 268 266 272 275 275 273 272 271 269 270 272 276 281 286
234 235 233 236 235 235 239 243 245 252 262 256 257 260 264 270 275 275 270 267 263 266 271 273 274 276 275
246 242 234 237 239 236 237 242 247 251 254 251 245 254 258 261 270 273 275 272 274 279 276 271 270 270 272
259 251 237 221 223 223 228 229 237 240 242 250 251 255 261 259 263 270 277 282 284 278 275 272 270 267 267
279 250 241 243 239 224 217 216 237 248 252 250 250 254 256 263 266 269 281 279 277 276 275 273 272 270 268
257 270 265 231 227 221 226 229 235 243 253 255 251 251 256 263 256 273 271 273 275 276 272 271 276 271 266
259 253 239 231 236 240 236 237 243 246 246 245 242 250 262 267 272 259 271 274 278 275 271 268 268 272 273